Location: Namasale
(1.5000°N, 32.6167°E)
Time: 17:00:45
(UTC+00:00)

Vanguard 1 Rocket - Pass Details

Date: 27 April 2021
Orbit: 651 x 4225 km, 34.3° (Epoch: 17 May)

Event Time Altitude Azimuth Distance (km) Brightness Sun altitude
Rises 03:47:06 0° 227° (SW) 8,408 11.8 0.3°
Reaches altitude 10° 03:53:12 10° 223° (SW) 7,433 11.5 1.8°
Maximum altitude 04:18:33 62° 146° (SE) 3,718 10.8 8.0°
Drops below altitude 10° 04:33:54 10° 69° (ENE) 4,870 13.9 11.7°
Sets 04:36:53 0° 65° (ENE) 5,505 13.3 12.4°
